Regional Weather Roundup
Issued by NWS

Home | Current Version | Previous Version | Graphics & Text | Print | Product List | Glossary On
Versions: 1 2 3 4 5 6 7 8 9 10 11 12 13 14 15 16 17 18 19 20 21 22 23 24 25 26 27 28 29 30 31 32 33 34 35 36 37 38 39 40 41 42 43 44 45 46 47 48 49 50
000
ASUS43 KTOP 190208
RWRKS

WEATHER ROUNDUP FOR KANSAS
NATIONAL WEATHER SERVICE GOODLAND KS
900 PM CDT FRI APR 18 2014

NOTE:  "FAIR" INDICATES FEW OR NO CLOUDS BELOW 12,000 FEET WITH NO
SIGNIFICANT WEATHER AND/OR OBSTRUCTIONS TO VISIBILITY.

KSZ001>006-013>018-027>032-041>047-190300-
NORTHWEST KANSAS

CITY           SKY/WX    TMP DP  RH WIND       PRES   REMARKS
GOODLAND       MOCLDY    63  42  46 S21       29.91S
HAYS           PTCLDY    63  43  48 SE16      30.03R
HILL CITY      CLEAR     65  41  41 S10G21    29.99R
RUSSELL        PTCLDY    61  42  49 SE15      30.03R
$$

KSZ061>065-074>080-084>089-190300-
SOUTHWEST KANSAS

CITY           SKY/WX    TMP DP  RH WIND       PRES   REMARKS
DODGE CITY     PTCLDY    61  41  47 S17       30.03R
ELKHART          N/A     65  42  43 S14         N/A
GARDEN CITY    PTCLDY    60  41  49 S17G28    29.98S
GREAT BEND     CLEAR     63  43  48 S15       30.04R
LIBERAL        PTCLDY    61  41  48 SE21      30.02R
PRATT          CLEAR     63  41  45 SE12      30.07S
$$

KSZ066>073-081>083-090>101-190300-
SOUTHEAST KANSAS

CITY           SKY/WX    TMP DP  RH WIND       PRES   REMARKS
CHANUTE        PTCLDY    58  41  53 SE5       30.14S
COFFEYVILLE    CLEAR     62  41  46 SE3       30.13S
HUTCHINSON     CLEAR     60  42  51 SE10      30.08R
MEDICINE LODGE   N/A     63  43  48 SE9       30.06S
NEWTON         CLEAR     59  37  44 S8        30.14R
PARSONS        CLEAR     57  38  48 CALM      30.14S
WICHITA INTL   PTCLDY    61  41  47 SE9       30.10R
WICHITA JABRA  CLEAR     59  41  51 SE6       30.10R
WICHITA MCCONL CLEAR     61  41  48 SE7       30.11R
WINFIELD       CLEAR     62  40  44 SE7       30.12R
$$

KSZ007>012-019>026-033>040-048>060-102>105-190300-
NORTHEAST KANSAS

CITY           SKY/WX    TMP DP  RH WIND       PRES   REMARKS
CONCORDIA      MOCLDY    61  42  49 S10       30.06R
EMPORIA        CLEAR     58  40  51 SE8       30.12S
LAWRENCE       CLEAR     55  42  61 E8        30.14S
MANHATTAN      PTCLDY    61  41  47 SE7       30.10R
OLATHE IND     CLEAR     58  42  55 SE5       30.16S
OLATHE EXE     CLEAR     60  41  49 SE5       30.15S
SALINA         CLEAR     62  41  46 S12       30.08R
TOPEKA BILLARD PTCLDY    58  41  53 SE7       30.14R
TOPEKA FORBES  PTCLDY    55  40  56 SE7       30.13R
$$



USA.gov is the U.S. government's official web portal to all federal, state and local government web resources and services.